Regional Weather Roundup
Issued by NWS Green Bay, WI

Home | Current Version | Previous Version | Graphics & Text | Print | Product List | Glossary Off
Versions: 1 2 3 4 5 6 7 8 9 10 11 12 13 14 15 16 17 18 19 20 21 22 23 24 25 26 27 28 29 30 31 32 33 34 35 36 37 38 39 40 41 42 43 44 45 46 47 48 49 50

000
ASUS43 KGRB 292211
RWRGRB

NORTH-CENTRAL AND NORTHEAST WISCONSIN REGIONAL WEATHER ROUNDUP
NATIONAL WEATHER SERVICE GREEN BAY WI
500 PM CDT SAT AUG 29 2015

WIZ005-009-010>012-018-019-292300-
NORTH CENTRAL WISCONSIN

CITY           SKY/WX    TMP DP  RH WIND       PRES   REMARKS
IRONWOOD       SUNNY     75  61  60 SW7       29.98S
MANITOWISH WTR CLOUDY    74  60  60 CALM      30.03F
ARBOR VITAE    MOSUNNY   77  62  59 SW6       30.03F
EAGLE RIVER    SUNNY     75  55  50 CALM      30.03F
LAND O LAKES   CLOUDY    77  58  51 SW5       30.03F
RHINELANDER    SUNNY     74  58  57 VRB5      30.06S
PHILLIPS       PTSUNNY   75  61  61 CALM      30.04S
ANTIGO         MOSUNNY   69  59  70 S3        30.07S
TOMAHAWK       SUNNY     72  60  65 CALM      30.05F
MERRILL        SUNNY     71  61  70 CALM      30.06F
$$

WIZ013-073-292300-
NORTHEAST WISCONSIN

CITY           SKY/WX    TMP DP  RH WIND       PRES   REMARKS
IRON MOUNTAIN  MOSUNNY   76  60  57 S7        30.01S
MARINETTE      MOSUNNY   72  61  68 E3        30.03S
OCONTO         PTSUNNY   69  63  82 CALM      30.04S
$$

WIZ017-030-035>037-045-292300-
CENTRAL WISCONSIN

CITY           SKY/WX    TMP DP  RH WIND       PRES   REMARKS
MEDFORD        MOSUNNY   69  61  77 S3        30.06S
WAUSAU         CLOUDY    68  59  73 S3        30.05S
MOSINEE        CLOUDY    64  61  88 CALM      30.07F
MARSHFIELD     CLOUDY    67  58  72 SE3       30.07S
WISC RAPIDS    NOT AVBL
STEVENS POINT  CLOUDY    63  59  87 CALM      30.07S
WAUPACA        CLOUDY    69  64  82 NW5       30.06R
SHAWANO        CLOUDY    71  62  74 W3        30.06R
CLINTONVILLE   CLOUDY    68  59  73 W6        30.06R
WAUTOMA        CLOUDY    70  63  78 CALM      30.05S
$$

WIZ038-039-048-051-292300-
FOX VALLEY

CITY           SKY/WX    TMP DP  RH WIND       PRES   REMARKS
NWS GREEN BAY  CLOUDY    71  63  75 E5        30.04S
APPLETON       CLOUDY    70  59  68 CALM      30.04R
OSHKOSH        CLOUDY    69  60  73 CALM      30.04R
FOND DU LAC    CLOUDY    68  62  81 CALM      30.04S
$$

WIZ022-050-052-292300-
EAST CENTRAL WISCONSIN

CITY           SKY/WX    TMP DP  RH WIND       PRES   REMARKS
EPHRAIM        MOCLDY    69  61  75 W5        30.04S
STURGEON BAY   PTSUNNY   66  61  82 CALM      30.07S
MANITOWOC      CLOUDY    67  62  84 MISG      30.05S
SHEBOYGAN      CLOUDY    66  62  87 SE7       30.04S
$$

LMZ563-521-522-541>543-292300-
LAKESHORE

STATION/POSITION TIME  TEMP    WIND        PRES    VSBY  WAVE
                       AIR SEA DIR/SP/G                  HT/PER
                 (UTC) (F)     (DEG/KT/KT) (MB)    (MI)  (FT/S)
SHEBOYGAN LKSHOR 2200   60     150/  4/  4 1017.7F
ALGOMA MARINA    2114             CALM       N/A
NORTHPORT PIER   2100   67      20/  3/  3 1017.3F
N MID LAKE BUOY  2150   65 65  220/  8/ 10 1017.3R         0
S GREEN BAY BUOY 2200   64 64   60/  2/  4 1018.7S
SISTER BAY LKSHO 2104   72     300/  8/  9   N/A
CHAMBERS ISLAND  2100   68     180/  6/  8 1017.3F
$$



USA.gov is the U.S. government's official web portal to all federal, state and local government web resources and services.